Year,Month,Day,Hour,Minute,Value (Times are PST for temperature in C)
2015,02,06,00,00,10.60
2015,02,06,00,01,10.60
2015,02,06,00,02,10.60
2015,02,06,00,03,10.60
2015,02,06,00,04,10.60
2015,02,06,00,05,10.60
2015,02,06,00,06,10.60
2015,02,06,06,02,10.90
2015,02,06,06,03,10.90
2015,02,06,06,04,10.90
2015,02,06,06,05,10.90
2015,02,06,06,06,10.90
2015,02,06,06,07,10.90
2015,02,06,06,08,10.90
2015,02,06,06,09,10.90
2015,02,06,06,10,10.90
2015,02,06,06,11,10.90
2015,02,06,06,12,10.90
2015,02,06,06,13,10.90
2015,02,06,06,14,10.90
2015,02,06,06,15,10.90
2015,02,06,06,16,10.90
2015,02,06,06,17,10.90
2015,02,06,06,18,10.90
2015,02,06,06,19,10.90
2015,02,06,06,20,10.90
2015,02,06,06,21,10.90
2015,02,06,06,22,10.90
2015,02,06,06,23,10.90
2015,02,06,06,24,10.90
2015,02,06,06,25,11.10
2015,02,06,06,26,11.00
2015,02,06,06,27,10.90
2015,02,06,06,28,10.90
2015,02,06,06,29,10.90
2015,02,06,06,30,10.90
2015,02,06,06,31,10.90
2015,02,06,06,32,10.90
2015,02,06,06,33,10.90
2015,02,06,06,34,10.90
2015,02,06,06,35,10.90
2015,02,06,06,36,10.90
2015,02,06,06,37,10.90
2015,02,06,06,38,10.90
2015,02,06,06,39,10.90
2015,02,06,06,40,10.90
2015,02,06,06,41,10.90
2015,02,06,06,42,10.90
2015,02,06,06,43,10.90
2015,02,06,06,44,10.90
2015,02,06,06,45,10.90
2015,02,06,06,46,10.90
2015,02,06,06,47,10.90
2015,02,06,06,48,10.90
2015,02,06,06,49,10.90
2015,02,06,06,50,10.90
2015,02,06,06,51,10.90
2015,02,06,06,52,10.90
2015,02,06,06,53,10.90
2015,02,06,06,54,10.90
2015,02,06,06,55,10.90
2015,02,06,06,56,10.90
2015,02,06,06,57,10.90
2015,02,06,06,58,10.90
2015,02,06,06,59,10.90
2015,02,06,07,00,10.90
2015,02,06,07,01,10.90
2015,02,06,07,02,10.90
2015,02,06,07,03,10.90
2015,02,06,07,04,10.90
2015,02,06,07,05,10.90
2015,02,06,07,06,10.90
2015,02,06,07,07,10.90
2015,02,06,07,08,10.90
2015,02,06,07,09,10.90
2015,02,06,07,10,10.90
2015,02,06,07,11,10.90
2015,02,06,07,12,10.90
2015,02,06,07,13,10.90
2015,02,06,07,14,10.90
2015,02,06,07,15,10.90
2015,02,06,07,16,10.90
2015,02,06,07,17,10.90
2015,02,06,07,18,10.90
2015,02,06,07,19,10.90
2015,02,06,07,20,10.90
2015,02,06,07,21,11.00
2015,02,06,07,22,11.10
2015,02,06,07,23,11.10
2015,02,06,07,24,11.10
2015,02,06,07,25,11.10
2015,02,06,07,26,11.10
2015,02,06,07,27,11.10
2015,02,06,07,28,11.10
2015,02,06,07,29,11.10
2015,02,06,07,30,11.10
2015,02,06,07,31,11.10
2015,02,06,07,32,11.10
2015,02,06,07,33,11.10
2015,02,06,07,34,11.10
2015,02,06,07,35,11.10
2015,02,06,07,36,11.10
2015,02,06,07,37,11.10
2015,02,06,07,38,11.10
2015,02,06,07,39,11.10
2015,02,06,07,40,11.10
2015,02,06,07,41,11.10
2015,02,06,07,42,11.10
2015,02,06,07,43,11.10
2015,02,06,07,44,11.10
2015,02,06,07,45,11.10
2015,02,06,07,46,11.10
2015,02,06,07,47,11.10
2015,02,06,07,48,11.10
2015,02,06,07,49,11.10
2015,02,06,07,50,11.10
2015,02,06,07,51,11.10
2015,02,06,07,52,11.10
2015,02,06,07,53,11.10
2015,02,06,09,17,11.40
2015,02,06,09,18,11.40
2015,02,06,09,19,11.40
2015,02,06,09,20,11.40
2015,02,06,09,21,11.40
2015,02,06,09,22,11.40
2015,02,06,09,23,11.40
2015,02,06,09,24,11.40
2015,02,06,09,25,11.40
2015,02,06,09,26,11.40
2015,02,06,09,27,11.40
2015,02,06,09,28,11.40
2015,02,06,09,29,11.40
2015,02,06,09,30,11.40
2015,02,06,09,31,11.40
2015,02,06,09,32,11.40
2015,02,06,09,33,11.40
2015,02,06,09,34,11.50
2015,02,06,09,35,11.60
2015,02,06,09,36,11.60
2015,02,06,09,37,11.60
2015,02,06,09,38,11.60
2015,02,06,09,39,11.60
2015,02,06,09,40,11.60
2015,02,06,09,41,11.60
2015,02,06,09,42,11.60
2015,02,06,09,43,11.60
2015,02,06,09,44,11.60
2015,02,06,09,45,11.60
2015,02,06,09,46,11.60
2015,02,06,09,47,11.60
2015,02,06,09,48,11.60
2015,02,06,09,49,11.60
2015,02,06,09,50,11.60
2015,02,06,09,51,11.60
2015,02,06,09,52,11.60
2015,02,06,09,53,11.60
2015,02,06,09,54,11.70
2015,02,06,09,55,11.70
2015,02,06,09,56,11.70
2015,02,06,09,57,11.70
2015,02,06,09,58,11.70
2015,02,06,09,59,11.70
2015,02,06,10,00,11.70
2015,02,06,10,01,11.70
2015,02,06,10,02,11.70
2015,02,06,10,03,11.70
2015,02,06,10,04,11.70
2015,02,06,10,05,11.70
2015,02,06,10,06,11.60
2015,02,06,10,07,11.60
2015,02,06,10,08,11.60
2015,02,06,10,09,11.60
2015,02,06,10,10,11.60
2015,02,06,10,11,11.70
2015,02,06,10,12,11.70
2015,02,06,10,13,11.70
2015,02,06,10,14,11.60
2015,02,06,10,15,11.60
2015,02,06,10,16,11.60
2015,02,06,10,17,11.60
2015,02,06,10,18,11.60
2015,02,06,10,19,11.60
2015,02,06,10,20,11.60
2015,02,06,10,21,11.60
2015,02,06,10,22,11.50
2015,02,06,10,23,11.40
2015,02,06,10,24,11.40
2015,02,06,10,25,11.40
2015,02,06,10,26,11.40
2015,02,06,10,27,11.40
2015,02,06,10,28,11.40
2015,02,06,10,29,11.40
2015,02,06,10,30,11.40
2015,02,06,10,31,11.40
2015,02,06,10,32,11.40
2015,02,06,10,33,11.40
2015,02,06,10,34,11.30
2015,02,06,10,35,11.30
2015,02,06,10,36,11.30
2015,02,06,10,37,11.30
2015,02,06,10,38,11.30
2015,02,06,10,39,11.40
2015,02,06,10,40,11.40
2015,02,06,10,41,11.40
2015,02,06,10,42,11.40
2015,02,06,10,43,11.40
2015,02,06,10,44,11.40
2015,02,06,10,45,11.40
2015,02,06,10,46,11.40
2015,02,06,10,47,11.40
2015,02,06,10,48,11.40
2015,02,06,10,49,11.40
2015,02,06,10,50,11.50
2015,02,06,10,51,11.50
2015,02,06,10,52,11.40
2015,02,06,10,53,11.40
2015,02,06,10,54,11.40
2015,02,06,10,55,11.40
2015,02,06,10,56,11.40
2015,02,06,10,57,11.40
2015,02,06,10,58,11.40
2015,02,06,10,59,11.50
2015,02,06,11,00,11.60
2015,02,06,11,01,11.50
2015,02,06,11,02,11.40
2015,02,06,11,03,11.40
2015,02,06,11,04,11.40
2015,02,06,11,05,11.40
2015,02,06,11,06,11.40
2015,02,06,11,07,11.40
2015,02,06,11,08,11.40
2015,02,06,11,09,11.40
2015,02,06,11,10,11.40
2015,02,06,11,11,11.40
2015,02,06,11,12,11.40
2015,02,06,11,13,11.40
2015,02,06,11,14,11.50
2015,02,06,11,15,11.60
2015,02,06,11,16,11.60
2015,02,06,11,17,11.60
2015,02,06,11,18,11.50
2015,02,06,11,19,11.40
2015,02,06,11,20,11.40
2015,02,06,11,21,11.30
2015,02,06,11,22,11.30
2015,02,06,11,23,11.20
2015,02,06,11,24,11.10
2015,02,06,11,25,11.10
2015,02,06,11,26,11.00
2015,02,06,11,27,10.90
2015,02,06,11,28,10.80
2015,02,06,11,29,10.80
2015,02,06,11,30,10.80
2015,02,06,11,31,10.70
2015,02,06,11,32,10.70
2015,02,06,11,33,10.80
2015,02,06,11,34,10.80
2015,02,06,11,35,10.80
2015,02,06,11,36,10.80
2015,02,06,11,37,10.80
2015,02,06,11,38,10.80
2015,02,06,11,39,10.90
2015,02,06,11,40,10.90
2015,02,06,11,41,10.90
2015,02,06,11,42,10.90
2015,02,06,11,43,10.90
2015,02,06,11,44,10.90
2015,02,06,11,45,10.90
2015,02,06,11,46,10.90
2015,02,06,11,47,10.80
2015,02,06,11,48,10.80
2015,02,06,11,49,10.80
2015,02,06,11,50,10.80
2015,02,06,11,51,10.90
2015,02,06,11,52,10.90
2015,02,06,11,53,10.90
2015,02,06,11,54,10.90
2015,02,06,11,55,10.90
2015,02,06,11,56,10.90
2015,02,06,11,57,10.90
2015,02,06,11,58,10.90
2015,02,06,11,59,10.90
2015,02,06,12,00,10.90
2015,02,06,12,01,11.00
2015,02,06,12,02,11.10
2015,02,06,12,03,11.10
2015,02,06,12,04,11.10
2015,02,06,12,05,11.20
2015,02,06,12,06,11.20
2015,02,06,12,07,11.20
2015,02,06,12,08,11.30
2015,02,06,12,09,11.30
2015,02,06,12,10,11.30
2015,02,06,12,11,11.40
2015,02,06,12,12,11.40
2015,02,06,12,13,11.40
2015,02,06,12,14,11.50
2015,02,06,12,15,11.60
2015,02,06,12,16,11.60
2015,02,06,12,17,11.60
2015,02,06,12,18,11.60
2015,02,06,12,19,11.60
2015,02,06,12,20,11.60
2015,02,06,12,21,11.70
2015,02,06,12,22,11.70
2015,02,06,12,23,11.70
2015,02,06,12,24,11.70
2015,02,06,12,25,11.70
2015,02,06,12,26,11.70
2015,02,06,12,27,11.80
2015,02,06,12,28,11.80
2015,02,06,12,29,11.80
2015,02,06,12,30,11.80
2015,02,06,12,31,11.80
2015,02,06,12,32,11.80
2015,02,06,12,33,11.80
2015,02,06,12,34,11.80
2015,02,06,12,35,11.80
2015,02,06,12,36,11.80
2015,02,06,12,37,11.80
2015,02,06,12,38,11.80
2015,02,06,12,39,11.80
2015,02,06,12,40,11.90
2015,02,06,12,41,11.90
2015,02,06,12,42,11.90
2015,02,06,12,43,11.90
2015,02,06,12,44,11.90
2015,02,06,12,45,11.90
2015,02,06,12,46,11.90
2015,02,06,12,47,11.90
2015,02,06,12,48,11.90
2015,02,06,12,49,11.90
2015,02,06,12,50,12.00
2015,02,06,12,51,11.90
2015,02,06,12,52,11.90
2015,02,06,12,53,11.90
2015,02,06,12,54,12.00
2015,02,06,12,55,12.00
2015,02,06,12,56,12.00
2015,02,06,12,57,12.00
2015,02,06,12,58,12.00
2015,02,06,12,59,12.00
2015,02,06,13,00,12.00
2015,02,06,13,01,12.00
2015,02,06,13,02,12.00
2015,02,06,13,03,11.90
2015,02,06,13,04,11.90
2015,02,06,13,05,11.90
2015,02,06,13,06,11.90
2015,02,06,13,07,11.90
2015,02,06,13,08,11.90
2015,02,06,13,09,11.90
2015,02,06,13,10,11.90
2015,02,06,13,11,11.90
2015,02,06,13,12,11.80
2015,02,06,13,13,11.80
2015,02,06,13,14,11.80
2015,02,06,13,15,11.80
2015,02,06,13,16,11.80
2015,02,06,13,17,11.80
2015,02,06,13,18,11.80
2015,02,06,13,19,11.80
2015,02,06,13,20,11.80
2015,02,06,13,21,11.80
2015,02,06,13,22,11.80
2015,02,06,13,23,11.80
2015,02,06,13,24,11.80
2015,02,06,13,25,11.80
2015,02,06,13,26,11.80
2015,02,06,13,27,11.80
2015,02,06,13,28,11.80
2015,02,06,13,29,11.80
2015,02,06,13,30,11.80
2015,02,06,13,31,11.80
2015,02,06,13,32,11.80
2015,02,06,13,33,11.80
2015,02,06,13,34,11.80
2015,02,06,13,35,11.80
2015,02,06,13,36,11.80
2015,02,06,13,37,11.80
2015,02,06,13,38,11.80
2015,02,06,13,39,11.80
2015,02,06,13,40,11.80
2015,02,06,13,41,11.80
2015,02,06,13,42,11.80
2015,02,06,13,43,11.80
2015,02,06,13,44,11.80
2015,02,06,13,45,11.80
2015,02,06,13,46,11.80
2015,02,06,13,47,11.80
2015,02,06,13,48,11.80
2015,02,06,13,49,11.80
2015,02,06,13,50,11.80
2015,02,06,13,51,11.80
2015,02,06,13,52,11.80
2015,02,06,13,53,11.80
2015,02,06,13,54,11.80
2015,02,06,13,55,11.80
2015,02,06,13,56,11.80
2015,02,06,13,57,11.80
2015,02,06,13,58,11.80
2015,02,06,13,59,11.80
2015,02,06,14,00,11.90
2015,02,06,14,01,11.90
2015,02,06,14,02,11.80
2015,02,06,14,03,11.80
2015,02,06,14,04,11.80
2015,02,06,14,05,11.80
2015,02,06,14,06,11.80
2015,02,06,14,07,11.80
2015,02,06,14,08,11.80
2015,02,06,14,09,11.80
2015,02,06,14,10,11.80
2015,02,06,14,11,11.80
2015,02,06,14,12,11.80
2015,02,06,14,13,11.80
2015,02,06,14,14,11.80
2015,02,06,14,15,11.80
2015,02,06,14,16,11.80
2015,02,06,14,17,11.80
2015,02,06,14,18,11.80
2015,02,06,14,19,11.80
2015,02,06,14,20,11.80
2015,02,06,14,21,11.80
2015,02,06,14,22,11.70
2015,02,06,14,23,11.70
2015,02,06,14,24,11.70
2015,02,06,14,25,11.70
2015,02,06,14,26,11.60
2015,02,06,14,27,11.60
2015,02,06,14,28,11.60
2015,02,06,14,29,11.60
2015,02,06,14,30,11.60
2015,02,06,14,31,11.60
2015,02,06,14,32,11.60
2015,02,06,14,33,11.60
2015,02,06,14,34,11.60
2015,02,06,14,35,11.60
2015,02,06,14,36,11.60
2015,02,06,14,37,11.50
2015,02,06,14,38,11.50
2015,02,06,14,39,11.40
2015,02,06,14,40,11.40
2015,02,06,14,41,11.40
2015,02,06,14,42,11.50
2015,02,06,14,43,11.40
2015,02,06,14,44,11.40
2015,02,06,14,45,11.40
2015,02,06,14,46,11.40
2015,02,06,14,47,11.40
2015,02,06,14,48,11.40
2015,02,06,14,49,11.40
2015,02,06,14,50,11.40
2015,02,06,14,51,11.30
2015,02,06,14,52,11.30
2015,02,06,14,53,11.20
2015,02,06,14,54,11.20
2015,02,06,14,55,11.20
2015,02,06,14,56,11.20
2015,02,06,14,57,11.30
2015,02,06,14,58,11.20
2015,02,06,14,59,11.20
2015,02,06,15,00,11.20
2015,02,06,15,01,11.20
2015,02,06,15,02,11.20
2015,02,06,15,03,11.20
2015,02,06,15,04,11.20
2015,02,06,15,05,11.20
2015,02,06,15,06,11.30
2015,02,06,15,07,11.20
2015,02,06,15,08,11.20
2015,02,06,15,09,11.20
2015,02,06,15,10,11.20
2015,02,06,15,11,11.20
2015,02,06,15,12,11.20
2015,02,06,15,13,11.20
2015,02,06,15,14,11.20
2015,02,06,15,15,11.20
2015,02,06,15,16,11.20
2015,02,06,15,17,11.20
2015,02,06,15,18,11.20
2015,02,06,15,19,11.20
2015,02,06,15,20,11.10
2015,02,06,15,21,11.10
2015,02,06,15,22,11.10
2015,02,06,15,23,11.10
2015,02,06,15,24,11.10
2015,02,06,15,25,11.10
2015,02,06,15,26,11.10
2015,02,06,15,27,11.10
2015,02,06,15,28,11.10
2015,02,06,15,29,11.10
2015,02,06,15,30,11.10
2015,02,06,15,31,11.10
2015,02,06,15,32,11.10
2015,02,06,15,33,11.10
2015,02,06,15,34,11.10
2015,02,06,15,35,11.10
2015,02,06,15,36,11.10
2015,02,06,15,37,11.10
2015,02,06,15,38,11.10
2015,02,06,15,39,11.10
2015,02,06,15,40,11.10
2015,02,06,15,41,11.10
2015,02,06,15,42,11.10
2015,02,06,15,43,11.10
2015,02,06,15,44,11.10
2015,02,06,15,45,11.10
2015,02,06,15,46,11.10
2015,02,06,15,47,11.10
2015,02,06,15,48,11.10
2015,02,06,15,49,11.10
2015,02,06,15,50,11.10
2015,02,06,15,51,11.10
2015,02,06,15,52,11.10
2015,02,06,15,53,11.20
2015,02,06,15,54,11.20
2015,02,06,15,55,11.20
2015,02,06,15,56,11.20
2015,02,06,15,57,11.10
2015,02,06,15,58,11.20
2015,02,06,15,59,11.20
2015,02,06,16,00,11.20
2015,02,06,16,01,11.20
2015,02,06,16,02,11.20
2015,02,06,16,03,11.20
2015,02,06,16,04,11.20
2015,02,06,16,05,11.20
2015,02,06,16,06,11.20
2015,02,06,16,07,11.20
2015,02,06,16,08,11.20
2015,02,06,16,09,11.10
2015,02,06,16,10,11.10
2015,02,06,16,11,11.10
2015,02,06,16,12,11.10
2015,02,06,16,13,11.10
2015,02,06,16,14,11.10
2015,02,06,16,15,11.10
2015,02,06,16,16,11.10
2015,02,06,16,17,11.10
2015,02,06,16,18,11.10
2015,02,06,16,19,11.10
2015,02,06,16,20,11.10
2015,02,06,16,21,11.10
2015,02,06,16,22,11.10
2015,02,06,16,23,11.10
2015,02,06,16,24,11.00
2015,02,06,16,25,10.90
2015,02,06,16,26,10.90
2015,02,06,16,27,10.90
2015,02,06,16,28,10.90
2015,02,06,16,29,10.90
2015,02,06,16,30,10.90
2015,02,06,16,31,10.90
2015,02,06,16,32,10.90
2015,02,06,16,33,10.90
2015,02,06,16,34,10.90
2015,02,06,16,35,10.90
2015,02,06,16,36,10.90
2015,02,06,16,37,10.90
2015,02,06,16,38,10.90
2015,02,06,16,39,10.90
2015,02,06,16,40,10.90
2015,02,06,16,41,10.90
2015,02,06,16,42,10.90
2015,02,06,16,43,10.90
2015,02,06,16,44,10.90
2015,02,06,16,45,10.90
2015,02,06,16,46,10.90
2015,02,06,16,47,10.90
2015,02,06,16,48,10.90
2015,02,06,16,49,10.80
2015,02,06,16,50,10.80
2015,02,06,16,51,10.80
2015,02,06,16,52,10.80
2015,02,06,16,53,10.80
2015,02,06,16,54,10.80
2015,02,06,16,55,10.80
2015,02,06,16,56,10.80
2015,02,06,16,57,10.70
2015,02,06,16,58,10.70
2015,02,06,16,59,10.70
2015,02,06,17,00,10.70
2015,02,06,17,01,10.70
2015,02,06,17,02,10.70
2015,02,06,17,03,10.70
2015,02,06,17,04,10.70
2015,02,06,17,05,10.70
2015,02,06,17,06,10.70
2015,02,06,17,07,10.60
2015,02,06,17,08,10.60
2015,02,06,17,09,10.60
2015,02,06,17,10,10.60
2015,02,06,17,11,10.60
2015,02,06,17,12,10.60
2015,02,06,17,13,10.60
2015,02,06,17,14,10.60
2015,02,06,17,15,10.60
2015,02,06,17,16,10.60
2015,02,06,17,17,10.60
2015,02,06,17,18,10.60
2015,02,06,17,19,10.50
2015,02,06,17,20,10.40
2015,02,06,17,21,10.40
2015,02,06,17,22,10.40
2015,02,06,17,23,10.40
2015,02,06,17,24,10.40
2015,02,06,17,25,10.40
2015,02,06,17,26,10.40
2015,02,06,17,27,10.30
2015,02,06,17,28,10.30
2015,02,06,17,29,10.30
2015,02,06,17,30,10.30
2015,02,06,17,31,10.30
2015,02,06,17,32,10.20
2015,02,06,17,33,10.20
2015,02,06,17,34,10.20
2015,02,06,17,35,10.30
2015,02,06,17,36,10.30
2015,02,06,17,37,10.30
2015,02,06,17,38,10.30
2015,02,06,17,39,10.30
2015,02,06,17,40,10.30
2015,02,06,17,41,10.30
2015,02,06,17,42,10.20
2015,02,06,17,43,10.20
2015,02,06,17,44,10.20
2015,02,06,17,45,10.20
2015,02,06,17,46,10.20
2015,02,06,17,47,10.20
2015,02,06,17,48,10.20
2015,02,06,17,49,10.20
2015,02,06,17,50,10.20
2015,02,06,17,51,10.20
2015,02,06,17,52,10.20
2015,02,06,17,53,10.20
2015,02,06,17,54,10.20
2015,02,06,17,55,10.20
2015,02,06,17,56,10.20
2015,02,06,17,57,10.20
2015,02,06,17,58,10.20
2015,02,06,17,59,10.20
2015,02,06,18,00,10.20
2015,02,06,18,01,10.20
2015,02,06,18,02,10.20
2015,02,06,18,03,10.20
2015,02,06,18,04,10.20
2015,02,06,18,05,10.10
2015,02,06,18,06,10.10
2015,02,06,18,07,10.10
2015,02,06,18,08,10.10
2015,02,06,18,09,10.10
2015,02,06,18,10,10.10
2015,02,06,18,11,10.10
2015,02,06,18,12,10.10
2015,02,06,18,13,10.10
2015,02,06,18,14,10.10
2015,02,06,18,15,10.10
2015,02,06,18,16,10.10
2015,02,06,18,17,10.10
2015,02,06,18,18,10.10
2015,02,06,18,19,10.00
2015,02,06,18,20,9.90
2015,02,06,18,21,9.90
2015,02,06,18,22,9.90
2015,02,06,18,23,9.90
2015,02,06,18,24,9.90
2015,02,06,18,25,9.90
2015,02,06,18,26,9.90
2015,02,06,18,27,9.90
2015,02,06,18,28,9.90
2015,02,06,18,29,9.80
2015,02,06,18,30,9.80
2015,02,06,18,31,9.80
2015,02,06,18,32,9.80
2015,02,06,18,33,9.80
2015,02,06,18,34,9.80
2015,02,06,18,35,9.80
2015,02,06,18,36,9.80
2015,02,06,18,37,9.80
2015,02,06,18,38,9.80
2015,02,06,18,39,9.80
2015,02,06,18,40,9.80
2015,02,06,18,41,9.70
2015,02,06,18,42,9.70
2015,02,06,18,43,9.70
2015,02,06,18,44,9.70
2015,02,06,18,45,9.70
2015,02,06,18,46,9.70
2015,02,06,18,47,9.70
2015,02,06,18,48,9.70
2015,02,06,18,49,9.70
2015,02,06,18,50,9.70
2015,02,06,18,51,9.70
2015,02,06,18,52,9.70
2015,02,06,18,53,9.70
2015,02,06,18,54,9.70
2015,02,06,18,55,9.70
2015,02,06,18,56,9.70
2015,02,06,18,57,9.70
2015,02,06,18,58,9.70
2015,02,06,18,59,9.70
2015,02,06,19,00,9.70
2015,02,06,19,01,9.70
2015,02,06,19,02,9.70
2015,02,06,19,03,9.70
2015,02,06,19,04,9.70
2015,02,06,19,05,9.70
2015,02,06,19,06,9.70
2015,02,06,19,07,9.80
2015,02,06,19,08,9.80
2015,02,06,19,09,9.80
2015,02,06,19,10,9.80
2015,02,06,19,11,9.90
2015,02,06,19,12,9.90
2015,02,06,19,13,9.90
2015,02,06,19,14,9.90
2015,02,06,19,15,9.90
2015,02,06,19,16,9.90
2015,02,06,19,17,9.90
2015,02,06,19,18,9.90
2015,02,06,19,19,9.90
2015,02,06,19,20,9.90
2015,02,06,19,21,9.90
2015,02,06,19,22,9.90
2015,02,06,19,23,9.90
2015,02,06,19,24,9.90
2015,02,06,19,25,9.90
2015,02,06,19,26,9.90
2015,02,06,19,27,9.90
2015,02,06,19,28,9.90
2015,02,06,19,29,9.90
2015,02,06,19,30,9.90
2015,02,06,19,31,9.90
2015,02,06,19,32,9.90
2015,02,06,19,33,9.90
2015,02,06,19,34,9.90
2015,02,06,19,35,9.90
2015,02,06,19,36,9.90
2015,02,06,19,37,9.90
2015,02,06,19,38,9.90
2015,02,06,19,39,9.90
2015,02,06,19,40,9.90
2015,02,06,19,41,9.90
2015,02,06,19,42,9.90
2015,02,06,19,43,9.90
2015,02,06,19,44,9.90
2015,02,06,19,45,9.90
2015,02,06,19,46,9.90
2015,02,06,19,47,9.90
2015,02,06,19,48,9.90
2015,02,06,19,49,9.90
2015,02,06,19,50,9.90
2015,02,06,19,51,9.90
2015,02,06,19,52,9.90
2015,02,06,19,53,9.90
2015,02,06,19,54,9.90
2015,02,06,19,55,9.90
2015,02,06,19,56,9.90
2015,02,06,19,57,9.90
2015,02,06,19,58,9.90
2015,02,06,19,59,9.90
2015,02,06,20,00,9.90
2015,02,06,20,01,9.90
2015,02,06,20,02,9.90
2015,02,06,20,03,9.90
2015,02,06,20,04,9.90
2015,02,06,20,05,9.90
2015,02,06,20,06,9.90
2015,02,06,20,07,9.90
2015,02,06,20,08,9.90
2015,02,06,20,09,9.90
2015,02,06,20,10,9.90
2015,02,06,20,11,9.90
2015,02,06,20,12,9.90
2015,02,06,20,13,9.90
2015,02,06,20,14,9.90
2015,02,06,20,15,9.90
2015,02,06,20,16,9.90
2015,02,06,20,17,9.90
2015,02,06,20,18,9.90
2015,02,06,20,19,9.90
2015,02,06,20,20,9.90
2015,02,06,20,21,9.90
2015,02,06,20,22,9.90
2015,02,06,20,23,9.90
2015,02,06,20,24,9.90
2015,02,06,20,25,9.90
2015,02,06,20,26,9.90
2015,02,06,20,27,9.90
2015,02,06,20,28,9.90
2015,02,06,20,29,9.90
2015,02,06,20,30,9.90
2015,02,06,20,31,9.90
2015,02,06,20,32,9.90
2015,02,06,20,33,9.90
2015,02,06,20,34,9.90
2015,02,06,20,35,9.90
2015,02,06,20,36,9.90
2015,02,06,20,37,9.90
2015,02,06,20,38,9.90
2015,02,06,20,39,9.90
2015,02,06,20,40,9.90
2015,02,06,20,41,9.90
2015,02,06,20,42,9.90
2015,02,06,20,43,9.80
2015,02,06,20,44,9.80
2015,02,06,20,45,9.80
2015,02,06,20,46,9.80
2015,02,06,20,47,9.80
2015,02,06,20,48,9.80
2015,02,06,20,49,9.80
2015,02,06,20,50,9.80
2015,02,06,20,51,9.80
2015,02,06,20,52,9.80
2015,02,06,20,53,9.80
2015,02,06,20,54,9.80
2015,02,06,20,55,9.80
2015,02,06,20,56,9.80
2015,02,06,20,57,9.80
2015,02,06,20,58,9.80
2015,02,06,20,59,9.80
2015,02,06,21,00,9.80
2015,02,06,21,01,9.80
2015,02,06,21,02,9.80
2015,02,06,21,03,9.80
2015,02,06,21,04,9.90
2015,02,06,21,05,9.80
2015,02,06,21,06,9.90
2015,02,06,21,07,9.90
2015,02,06,21,08,9.90
2015,02,06,21,09,9.90
2015,02,06,21,10,9.90
2015,02,06,21,11,9.90
2015,02,06,21,12,9.90
2015,02,06,21,13,9.90
2015,02,06,21,14,9.90
2015,02,06,21,15,9.90
2015,02,06,21,16,9.90
2015,02,06,21,17,9.90
2015,02,06,21,18,9.90
2015,02,06,21,19,9.90
2015,02,06,21,20,9.90
2015,02,06,21,21,9.90
2015,02,06,21,22,9.90
2015,02,06,21,23,9.90
2015,02,06,21,24,9.90
2015,02,06,21,25,9.90
2015,02,06,21,26,9.90
2015,02,06,21,27,9.90
2015,02,06,21,28,9.90
2015,02,06,21,29,9.90
2015,02,06,21,30,9.90
2015,02,06,21,31,9.80
2015,02,06,21,32,9.80
2015,02,06,21,33,9.80
2015,02,06,21,34,9.80
2015,02,06,21,35,9.80
2015,02,06,21,36,9.80
2015,02,06,21,37,9.80
2015,02,06,21,38,9.80
2015,02,06,21,39,9.80
2015,02,06,21,40,9.80
2015,02,06,21,41,9.80
2015,02,06,21,42,9.80
2015,02,06,21,43,9.80
2015,02,06,21,44,9.80
2015,02,06,21,45,9.80
2015,02,06,21,46,9.80
2015,02,06,21,47,9.80
2015,02,06,21,48,9.80
2015,02,06,21,49,9.80
2015,02,06,21,50,9.80
2015,02,06,21,51,9.80
2015,02,06,21,52,9.80
2015,02,06,21,53,9.80
2015,02,06,21,54,9.80
2015,02,06,21,55,9.80
2015,02,06,21,56,9.80
2015,02,06,21,57,9.80
2015,02,06,21,58,9.80
2015,02,06,21,59,9.80
2015,02,06,22,00,9.80
2015,02,06,22,01,9.80
2015,02,06,22,02,9.80
2015,02,06,22,03,9.80
2015,02,06,22,04,9.80
2015,02,06,22,05,9.80
2015,02,06,22,06,9.80
2015,02,06,22,07,9.80
2015,02,06,22,08,9.80
2015,02,06,22,09,9.80
2015,02,06,22,10,9.80
2015,02,06,22,11,9.90
2015,02,06,22,12,9.90
2015,02,06,22,13,9.90
2015,02,06,22,14,9.90
2015,02,06,22,15,9.90
2015,02,06,22,16,9.80
2015,02,06,22,17,9.80
2015,02,06,22,18,9.80
2015,02,06,22,19,9.80
2015,02,06,22,20,9.80
2015,02,06,22,21,9.70
2015,02,06,22,22,9.70
2015,02,06,22,23,9.70
2015,02,06,22,24,9.70
2015,02,06,22,25,9.70
2015,02,06,22,26,9.70
2015,02,06,22,27,9.60
2015,02,06,22,28,9.60
2015,02,06,22,29,9.60
2015,02,06,22,30,9.60
2015,02,06,22,31,9.60
2015,02,06,22,32,9.60
2015,02,06,22,33,9.60
2015,02,06,22,34,9.60
2015,02,06,22,35,9.60
2015,02,06,22,36,9.60
2015,02,06,22,37,9.60
2015,02,06,22,38,9.60
2015,02,06,22,39,9.60
2015,02,06,22,40,9.60
2015,02,06,22,41,9.60
2015,02,06,22,42,9.60
2015,02,06,22,43,9.50
2015,02,06,22,44,9.50
2015,02,06,22,45,9.50
2015,02,06,22,46,9.50
2015,02,06,22,47,9.50
2015,02,06,22,48,9.50
2015,02,06,22,49,9.50
2015,02,06,22,50,9.50
2015,02,06,22,51,9.40
2015,02,06,22,52,9.40
2015,02,06,22,53,9.40
2015,02,06,22,54,9.40
2015,02,06,22,55,9.40
2015,02,06,22,56,9.40
2015,02,06,22,57,9.40
2015,02,06,22,58,9.30
2015,02,06,22,59,9.30
2015,02,06,23,00,9.30
2015,02,06,23,01,9.30
2015,02,06,23,02,9.30
2015,02,06,23,03,9.30
2015,02,06,23,04,9.30
2015,02,06,23,05,9.30
2015,02,06,23,06,9.20
2015,02,06,23,07,9.20
2015,02,06,23,08,9.20
2015,02,06,23,09,9.20
2015,02,06,23,10,9.20
2015,02,06,23,11,9.20
2015,02,06,23,12,9.20
2015,02,06,23,13,9.20
2015,02,06,23,14,9.20
2015,02,06,23,15,9.20
2015,02,06,23,16,9.20
2015,02,06,23,17,9.20
2015,02,06,23,18,9.20
2015,02,06,23,19,9.20
2015,02,06,23,20,9.10
2015,02,06,23,21,9.10
2015,02,06,23,22,9.10
2015,02,06,23,23,9.10
2015,02,06,23,24,9.10
2015,02,06,23,25,9.00
2015,02,06,23,26,9.00
2015,02,06,23,27,9.00
2015,02,06,23,28,9.00
2015,02,06,23,29,9.00
2015,02,06,23,30,9.00
2015,02,06,23,31,8.90
2015,02,06,23,32,8.90
2015,02,06,23,33,8.90
2015,02,06,23,34,8.80
2015,02,06,23,35,8.80
2015,02,06,23,36,8.80
2015,02,06,23,37,8.80
2015,02,06,23,38,8.70
2015,02,06,23,39,8.70
2015,02,06,23,40,8.70
2015,02,06,23,41,8.70
2015,02,06,23,42,8.70
2015,02,06,23,43,8.70
2015,02,06,23,44,8.70
2015,02,06,23,45,8.70
2015,02,06,23,46,8.70
2015,02,06,23,47,8.70
2015,02,06,23,48,8.70
2015,02,06,23,49,8.80
2015,02,06,23,50,8.80
2015,02,06,23,51,8.80
2015,02,06,23,52,8.80
2015,02,06,23,53,8.80
2015,02,06,23,54,8.80
2015,02,06,23,55,8.80
2015,02,06,23,56,8.80
2015,02,06,23,57,8.80
2015,02,06,23,58,8.90
2015,02,06,23,59,8.90
